Flag for Denmark Weather past 2 weeks in Vejle, Denmark

Now
50 °F

Passing clouds.


Feels Like: 48 °F
Forecast: 50 / 64 °F
Wind: 6 mph from Southwest

Location: Billund Lufthavn

Current Time: Aug 20, 2014 at 11:38:35 PM

Latest Report: Aug 20, 2014 at 10:50 PM


Visibility: N/A

Pressure: 29.83 "Hg

Humidity: 94%

Dew point: 48 °F

Location of VejleLocation

Historic Weather in Vejle — Graph

°F

Vejle temperature yesterday

Maximum temperature yesterday: 61 °F (at 12:50 PM)
Minimum temperature yesterday: 50 °F (at 5:20 AM)
Average temperature yesterday: 54 °F

Past Weeks' High & Low Weather Summary

 TemperatureHumidityPressure
High77 °F (Aug 6, 3:50 PM)100% (Aug 6, 3:50 AM)30.07 "Hg (Aug 6, 3:50 AM)
Low46 °F (Aug 15, 4:20 AM)36% (Aug 6, 3:50 PM)29.30 "Hg (Aug 18, 8:50 AM)
Average59 °F80%29.71 "Hg
* Reported Aug 5 9:20 PM — Aug 20 9:50 PM, Vejle, Weather by CustomWeather, © 2014

Note: Actual official high and low records may vary slightly from our data, if they occured in-between our weather recording intervals... More about our weather records

Advertising

Vejle weather history for previous 24 hours

 ConditionsComfort  
Time TempWeatherWind HumidityBarometerVisibility
9:50 PM
Aug 20
52 °FPassing clouds.10 mph88%29.80 "HgN/A
8:50 PM54 °FScattered clouds.9 mph82%29.80 "HgN/A
8:20 PM55 °FScattered clouds.9 mph82%29.80 "HgN/A
7:50 PM55 °FScattered clouds.13 mph82%29.80 "HgN/A
7:20 PM55 °FPartly sunny.14 mph82%29.80 "HgN/A
6:50 PM57 °FPartly sunny.14 mph67%29.77 "HgN/A
6:20 PM59 °FScattered clouds.20 mph59%29.77 "HgN/A
5:50 PM59 °FScattered clouds.18 mph63%29.77 "HgN/A
5:20 PM59 °FScattered clouds.21 mph59%29.77 "HgN/A
4:50 PM61 °FScattered clouds.20 mph59%29.77 "HgN/A
4:20 PM59 °FScattered clouds.20 mph63%29.77 "HgN/A
3:50 PM63 °FScattered clouds.21 mph52%29.77 "HgN/A
3:20 PM61 °FScattered clouds.20 mph59%29.77 "HgN/A
2:50 PM61 °FScattered clouds.18 mph63%29.74 "HgN/A
2:20 PM59 °FScattered clouds.21 mph68%29.74 "HgN/A
1:50 PM57 °FScattered clouds.22 mph72%29.74 "HgN/A
1:20 PM59 °FScattered clouds.13 mph82%29.74 "HgN/A
12:50 PM61 °FScattered clouds.21 mph63%29.71 "HgN/A
12:20 PM59 °FScattered clouds.22 mph68%29.71 "HgN/A
11:50 AM59 °FScattered clouds.18 mph72%29.71 "HgN/A
11:20 AM59 °FScattered clouds.18 mph77%29.71 "HgN/A
10:50 AM57 °FScattered clouds.21 mph77%29.71 "HgN/A
10:20 AM59 °FScattered clouds.18 mph72%29.68 "HgN/A
9:50 AM57 °FScattered clouds.14 mph77%29.68 "HgN/A
9:20 AM55 °FScattered clouds.13 mph82%29.68 "HgN/A
8:50 AM55 °FScattered clouds.10 mph88%29.68 "HgN/A
8:20 AM54 °FScattered clouds.7 mph94%29.65 "HgN/A
7:50 AM52 °FScattered clouds.9 mph94%29.65 "HgN/A
7:20 AM52 °FScattered clouds.9 mph94%29.65 "HgN/A
6:50 AM50 °FPassing clouds.7 mph100%29.65 "HgN/A
6:20 AM52 °FSprinkles. Partly cloudy.9 mph94%29.65 "HgN/A
5:50 AM52 °FSprinkles. Partly cloudy.10 mph88%29.65 "HgN/A
5:20 AM50 °FSprinkles. Partly cloudy.9 mph94%29.62 "HgN/A
4:50 AM50 °FClear.7 mph94%29.62 "Hg10 mi
4:20 AM50 °FPassing clouds.9 mph94%29.62 "HgN/A
3:50 AM50 °FPassing clouds.8 mph94%29.62 "HgN/A
3:20 AM52 °FPartly cloudy.8 mph94%29.62 "HgN/A
2:50 AM52 °FPartly cloudy.7 mph94%29.62 "HgN/A
2:20 AM50 °FPassing clouds.6 mph94%29.62 "HgN/A
1:50 AM52 °FPartly cloudy.7 mph94%29.62 "HgN/A
1:20 AM52 °FSprinkles. Partly cloudy.7 mph94%29.62 "HgN/A
12:20 AM52 °FSprinkles. Partly cloudy.7 mph94%29.62 "HgN/A
11:50 PM
Aug 19
52 °FPartly cloudy.5 mph94%29.62 "HgN/A
11:20 PM52 °FPassing clouds.6 mph94%29.62 "HgN/A
Weather by CustomWeather, © 2014

See weather overviewHow to use our weather pages